Location: Demmingen
(48.6757°N, 10.4375°E)
Time: 14:07:46
(UTC+00:00)

PSLV DEB - Visible Passes

Search period start: 04 October 2024 00:00
Search period end: 14 October 2024 00:00
Orbit: 612 x 632 km, 98.2° (Epoch: 03 October)

Date Brightness Start Highest point End Pass type
(mag) Time Alt. Az. Time Alt. Az. Time Alt. Az.
04 Oct ? 17:31:10 10° SE 17:35:02 33° ENE 17:38:57 10° N visible
04 Oct ? 19:07:22 10° SSW 19:11:09 29° W 19:15:01 10° NW visible
05 Oct ? 17:48:44 10° SE 17:52:54 47° ENE 17:57:07 10° N visible
05 Oct ? 19:26:02 10° SW 19:29:16 20° W 19:32:33 10° NW visible
06 Oct ? 18:06:28 10° SSE 18:10:47 71° ENE 18:15:09 10° N visible
06 Oct ? 19:45:08 10° WSW 19:47:25 14° W 19:49:41 10° WNW visible
07 Oct ? 18:24:22 10° S 18:28:42 78° WSW 18:33:06 10° NNW visible
08 Oct ? 17:07:40 10° ESE 17:10:52 20° ENE 17:14:06 10° NNE visible
08 Oct ? 18:42:25 10° S 18:46:39 52° W 18:50:57 10° NNW visible
09 Oct ? 17:24:53 10° ESE 17:28:37 28° ENE 17:32:22 10° N visible
09 Oct ? 19:00:39 10° SSW 19:04:38 35° W 19:08:40 10° NNW visible
10 Oct ? 17:42:18 10° SE 17:46:23 41° ENE 17:50:30 10° N visible
10 Oct ? 19:19:07 10° SSW 19:22:38 24° W 19:26:12 10° NW visible
11 Oct ? 17:59:54 10° SSE 18:04:11 60° ENE 18:08:31 10° N visible
11 Oct ? 19:37:55 10° SW 19:40:41 16° W 19:43:29 10° NW visible
12 Oct ? 18:17:39 10° SSE 18:22:00 89° ENE 18:26:26 10° NNW visible
12 Oct ? 19:57:33 10° WSW 19:58:46 11° W 19:59:59 10° WNW visible
13 Oct ? 17:01:16 10° ESE 17:04:11 18° ENE 17:07:09 10° NNE visible
13 Oct ? 18:35:39 11° S 18:39:52 62° WSW 18:44:14 10° NNW visible
